Date String (YYYY-MM-DD hh:mm:ss) UTC,Instrument flags,Ambient pressure (hPa),Sample flow (lpm),Bypass flow (lpm),Sample temperature (°C),Ambient temperature (°C),ASC tube jacket temperature (°C),LED temperature (°C),Box temperature (°C),Sample RH (%),Span deviation,Mass concentration (μg/m³),Mass concentration (μg/m³),Mass concentration (μg/m³)
DateTimeUTC,F1_M11,P_M11,Q1_M11,Q2_M11,T1_M11,T2_M11,T3_M11,T4_M11,T5_M11,U1_M11,ZSPAN_M11,X0_M11,X2_M11,X1_M11
2022-11-14 11:00:00,,0825.2,4.98,0.00,22.3,21.3,00.0,31.1,24.1,10.2,0000.0,0008.40,0003.98,0003.67
2022-11-14 11:01:00,,0825.2,5.02,0.00,22.4,22.1,00.0,31.2,24.3,10.2,0000.0,0008.07,0003.96,0003.66
2022-11-14 11:02:00,,0825.2,4.98,0.00,22.4,22.1,00.0,31.2,24.4,10.0,0000.0,0007.76,0003.97,0003.66
2022-11-14 11:03:00,,0825.2,5.02,0.00,22.4,21.8,00.0,31.2,24.4,09.9,0000.0,0007.91,0004.01,0003.67
2022-11-14 11:04:00,,0825.2,5.01,0.00,22.4,21.5,00.0,31.2,24.3,09.7,0000.0,0008.09,0004.05,0003.69
2022-11-14 11:05:00,,0825.2,4.99,0.00,22.4,21.2,00.0,31.2,24.2,09.5,0000.0,0008.09,0004.08,0003.73
2022-11-14 11:06:00,,0825.2,5.01,0.00,22.3,21.0,00.0,31.2,24.1,09.4,0000.0,0008.03,0004.11,0003.77
2022-11-14 11:07:00,,0825.2,5.00,0.00,22.3,20.9,00.0,31.2,24.1,09.2,0000.0,0007.66,0004.18,0003.81
2022-11-14 11:08:00,,0825.3,5.01,0.00,22.3,20.8,00.0,31.2,24.0,09.2,0000.0,0007.41,0004.25,0003.86
2022-11-14 11:09:00,,0825.3,5.00,0.00,22.3,20.7,00.0,31.2,24.0,09.3,0000.0,0007.48,0004.31,0003.90
2022-11-14 11:10:00,,0825.3,4.99,0.00,22.2,20.6,00.0,31.2,24.0,09.2,0000.0,0007.53,0004.38,0003.95
2022-11-14 11:11:00,,0825.3,5.00,0.00,22.2,20.6,00.0,31.1,24.0,09.3,0000.0,0007.69,0004.46,0004.00
2022-11-14 11:12:00,,0825.3,5.00,0.00,22.2,20.7,00.0,31.1,24.0,09.3,0000.0,0007.79,0004.52,0004.03
2022-11-14 11:13:00,,0825.3,5.01,0.00,22.3,21.5,00.0,31.1,24.2,09.2,0000.0,0008.13,0004.57,0004.05
2022-11-14 11:14:00,,0825.2,5.00,0.00,22.4,22.4,00.0,31.1,24.4,09.1,0000.0,0008.11,0004.56,0004.08
2022-11-14 11:15:00,,0825.3,5.00,0.00,22.5,22.6,00.0,31.1,24.5,09.0,0000.0,0008.04,0004.57,0004.10
2022-11-14 11:16:00,,0825.2,5.00,0.00,22.5,22.2,00.0,31.2,24.5,08.9,0000.0,0008.12,0004.59,0004.11
2022-11-14 11:17:00,,0825.2,4.99,0.00,22.5,21.8,00.0,31.2,24.4,08.9,0000.0,0008.25,0004.62,0004.12
2022-11-14 11:18:00,,0825.2,5.00,0.00,22.4,21.5,00.0,31.2,24.3,08.8,0000.0,0008.51,0004.63,0004.14
2022-11-14 11:19:00,,0825.2,5.01,0.00,22.4,21.3,00.0,31.2,24.3,08.8,0000.0,0008.94,0004.67,0004.16
2022-11-14 11:20:00,,0825.2,4.98,0.00,22.4,21.1,00.0,31.2,24.2,08.8,0000.0,0008.98,0004.71,0004.19
2022-11-14 11:21:00,,0825.2,5.01,0.00,22.4,20.9,00.0,31.2,24.2,08.8,0000.0,0009.10,0004.76,0004.21
2022-11-14 11:22:00,,0825.2,5.00,0.00,22.3,20.8,00.0,31.2,24.1,08.8,0000.0,0009.18,0004.79,0004.24
2022-11-14 11:23:00,,0825.2,5.00,0.00,22.3,20.7,00.0,31.2,24.1,08.8,0000.0,0009.22,0004.82,0004.27
2022-11-14 11:24:00,,0825.2,5.00,0.00,22.3,20.7,00.0,31.2,24.0,08.8,0000.0,0009.02,0004.85,0004.31
2022-11-14 11:25:00,,0825.2,5.00,0.00,22.2,20.6,00.0,31.2,24.0,08.9,0000.0,0009.26,0004.85,0004.33
2022-11-14 11:26:00,,0825.2,5.00,0.00,22.2,20.6,00.0,31.2,24.0,08.9,0000.0,0009.48,0004.89,0004.33
2022-11-14 11:27:00,,0825.2,5.00,0.00,22.2,20.7,00.0,31.2,24.0,08.9,0000.0,0009.41,0004.88,0004.34
2022-11-14 11:28:00,,0825.3,5.01,0.00,22.3,21.6,00.0,31.1,24.2,08.8,0000.0,0009.31,0004.88,0004.35
2022-11-14 11:29:00,,0825.3,4.99,0.00,22.4,22.2,00.0,31.1,24.4,08.8,0000.0,0009.39,0004.89,0004.35
2022-11-14 11:30:00,,0825.3,5.01,0.00,22.4,22.0,00.0,31.1,24.4,08.8,0000.0,0009.22,0004.88,0004.35
2022-11-14 11:31:00,,0825.4,4.99,0.00,22.4,21.6,00.0,31.2,24.3,08.7,0000.0,0009.08,0004.83,0004.34
2022-11-14 11:32:00,,0825.3,5.01,0.00,22.4,21.4,00.0,31.2,24.2,08.7,0000.0,0009.02,0004.81,0004.33
2022-11-14 11:33:00,,0825.3,5.00,0.00,22.3,21.2,00.0,31.2,24.2,08.7,0000.0,0009.00,0004.80,0004.32
2022-11-14 11:34:00,,0825.3,4.99,0.00,22.3,21.0,00.0,31.2,24.1,08.7,0000.0,0009.50,0004.81,0004.32
2022-11-14 11:35:00,,0825.3,5.01,0.00,22.3,20.8,00.0,31.2,24.0,08.8,0000.0,0009.93,0004.84,0004.31
2022-11-14 11:36:00,,0825.3,5.00,0.00,22.2,20.8,00.0,31.2,24.0,08.8,0000.4,0009.81,0004.88,0004.32
2022-11-14 11:37:00,,0825.3,4.99,0.00,22.2,20.7,00.0,31.2,24.0,08.8,0001.9,0009.60,0004.86,0004.33
2022-11-14 11:38:00,,0825.3,4.99,0.00,22.2,20.6,00.0,31.2,23.9,08.8,0001.9,0010.31,0004.87,0004.33
2022-11-14 11:39:00,,0825.3,5.00,0.00,22.1,20.5,00.0,31.1,23.9,08.9,0001.0,0010.38,0004.88,0004.33
2022-11-14 11:40:00,,0825.3,5.01,0.00,22.2,20.9,00.0,31.1,24.0,08.9,0000.4,0010.16,0004.89,0004.33
2022-11-14 11:41:00,,0825.4,5.00,0.00,22.2,21.7,00.0,31.1,24.2,08.8,0000.0,0010.13,0004.87,0004.32
2022-11-14 11:42:00,,0825.4,4.99,0.00,22.3,22.2,00.0,31.1,24.3,08.8,0000.0,0010.27,0004.89,0004.32
2022-11-14 11:43:00,,0825.4,5.02,0.00,22.4,21.9,00.0,31.1,24.3,08.8,0000.0,0010.51,0004.91,0004.32
2022-11-14 11:44:00,,0825.4,4.98,0.00,22.3,21.5,00.0,31.1,24.3,08.8,0000.3,0010.70,0004.89,0004.31
2022-11-14 11:45:00,,0825.4,5.01,0.00,22.3,21.3,00.0,31.1,24.2,08.8,0000.6,0010.12,0004.86,0004.30
2022-11-14 11:46:00,,0825.3,5.01,0.00,22.3,21.0,00.0,31.1,24.1,08.8,0000.0,0009.67,0004.80,0004.29
2022-11-14 11:47:00,,0825.4,5.01,0.00,22.3,20.9,00.0,31.1,24.1,08.8,0000.0,0009.44,0004.76,0004.28
2022-11-14 11:48:00,,0825.4,5.01,0.00,22.3,20.8,00.0,31.1,24.1,08.8,0000.0,0009.45,0004.77,0004.27
2022-11-14 11:49:00,,0825.4,5.00,0.00,22.2,20.7,00.0,31.1,24.0,08.8,0000.0,0009.10,0004.79,0004.27
2022-11-14 11:50:00,,0825.4,5.00,0.00,22.2,20.6,00.0,31.1,24.0,08.8,0000.0,0009.43,0004.78,0004.27
2022-11-14 11:51:00,,0825.4,4.98,0.00,22.2,20.5,00.0,31.1,24.0,08.8,0000.0,0009.31,0004.75,0004.26
2022-11-14 11:52:00,,0825.4,5.00,0.00,22.2,20.5,00.0,31.1,23.9,08.8,0000.0,0009.03,0004.76,0004.25
2022-11-14 11:53:00,,0825.4,5.00,0.00,22.2,21.1,00.0,31.0,24.0,08.8,0000.0,0009.10,0004.76,0004.25
2022-11-14 11:54:00,,0825.5,5.01,0.00,22.3,22.0,00.0,31.0,24.2,08.8,0000.0,0008.99,0004.74,0004.24
2022-11-14 11:55:00,,0825.5,4.99,0.00,22.4,22.6,00.0,31.0,24.4,08.8,0000.0,0008.92,0004.77,0004.25
2022-11-14 11:56:00,,0825.4,4.99,0.00,22.4,22.4,00.0,31.1,24.5,08.7,0000.0,0008.98,0004.79,0004.26
2022-11-14 11:57:00,,0825.4,5.01,0.00,22.4,22.0,00.0,31.1,24.4,08.7,0000.0,0009.01,0004.79,0004.27
2022-11-14 11:58:00,,0825.4,5.01,0.00,22.4,21.7,00.0,31.2,24.3,08.7,0000.0,0009.02,0004.79,0004.26
2022-11-14 11:59:00,,0825.4,4.99,0.00,22.4,21.4,00.0,31.2,24.2,08.7,0000.0,0009.57,0004.80,0004.27
